Location: Unnamed
(51.5169°N, 0.1311°W)
Time: 20:11:59
(UTC+01:00)

Tiros 1 - Pass Details

Date: 14 August 2024
Orbit: 623 x 655 km, 48.4° (Epoch: 16 September)

Event Time Altitude Azimuth Distance (km) Brightness Sun altitude
Rises 07:41:39 0° 263° (W) 2,978 9.9 16.7°
Reaches altitude 10° 07:44:01 10° 260° (W) 2,067 9.2 17.1°
Maximum altitude 07:48:43 61° 181° (S) 748 7.8 17.8°
Drops below altitude 10° 07:53:24 10° 102° (ESE) 2,061 11.8 18.5°
Sets 07:55:45 0° 99° (E) 2,969 12.2 18.9°
